POPACS 2

Last updated on Fri Dec 19 2025 00:03:50 GMT+0000 (Coordinated Universal Time)

1 39269U 13055E 25352.42891062 .00019862 00000+0 35800-3 0 9996 2 39269 80.9932 350.0931 0447283 52.0075 312.0651 14.83624955636336
UTC large
Height (km)
Speed (km/s)
/
Latitude / Longitude
Inclination (degrees)
Orbital Period (minutes)
Azimuth
Elevation
Range (km)
Doppler Factor

Next 0 passes for location: London (51.5072 / 0.1276)

Sorry there are no passes over London.